Vorticity
7 7 6 7 7 6 12 1 7 14 17 9 14 18 27 -3 2 -7 9 23 23 7 3 4 0 2 2 3 3 2 3 4 3 6 7 3 3 5 6 9 9 8 4 3 4 4 5 5 5
7 9 9 4 5 7 -3 5 6 15 13 4 3 17 17 3 6 -6 -7 27 18 8 2 3 -6 10 4 0 2 2 4 3 8 4 1 3 1 1 3 5 9 9 6 5 3 3 3 4 4
9 9 9 12 13 9 2 -3 7 6 2 5 2 14 5 14 5 7 -11 1 19 3 1 -3 12 -22 20 2 2 2 4 6 3 1 2 -1 1 1 3 5 7 9 9 7 5 3 3 3 4
9 10 10 7 -4 4 -5 -12 11 10 -2 2 9 1 4 10 15 12 8 9 5 -2 15 5 -7 11 7 8 3 4 3 4 1 2 1 1 2 2 4 5 7 9 10 7 6 4 3 3 3
9 8 10 4 10 16 4 4 22 9 -0 5 -1 -1 5 -8 10 11 12 15 14 10 6 10 3 8 7 6 4 4 2 1 1 1 2 2 1 1 2 5 7 8 10 9 7 6 5 4 3
8 5 3 14 13 7 12 12 29 3 -0 -1 3 5 5 4 7 10 16 8 9 13 4 4 7 12 5 4 2 3 2 2 2 3 2 2 2 3 4 7 9 9 10 9 9 8 6 5 4
7 7 6 8 3 19 16 13 14 10 2 3 4 2 2 -2 8 5 16 17 10 3 7 12 9 4 4 2 3 4 3 3 3 2 3 3 3 4 7 8 10 10 10 11 10 9 9 7 6
5 10 13 10 2 0 3 6 14 13 10 8 9 4 0 -0 7 7 2 8 16 9 9 6 4 5 3 4 5 3 3 3 3 3 2 3 4 5 7 8 7 8 9 9 10 10 10 8 8
5 7 12 5 4 -3 9 11 10 7 5 4 4 -1 4 4 10 3 7 8 15 13 7 6 5 5 4 4 3 3 4 4 3 3 4 4 4 6 8 7 6 5 6 7 8 9 10 11 8
5 4 11 1 -4 -0 1 4 6 5 8 5 4 7 3 5 8 9 7 12 13 14 9 6 6 5 4 2 3 5 4 4 3 3 3 4 5 7 5 7 5 4 4 6 7 8 7 8 10
2 4 0 -3 4 1 -1 5 1 6 3 -2 1 -2 4 5 6 15 16 14 12 10 10 9 8 6 4 6 6 5 3 3 3 4 5 8 8 6 5 6 5 4 4 4 6 7 8 8 7
7 7 7 5 5 3 4 1 2 2 3 2 7 3 5 11 6 11 6 6 6 7 8 7 6 6 5 6 5 4 3 4 6 7 8 6 5 6 7 6 6 3 3 5 6 6 7 8 8
3 2 2 3 2 2 3 4 5 4 2 9 11 6 9 5 6 7 4 10 10 6 4 4 6 7 7 7 6 6 8 8 8 7 6 7 8 8 8 8 5 5 5 5 5 6 7 7 7
7 11 11 6 1 3 5 8 6 4 3 -0 11 13 7 4 6 4 11 11 9 6 6 5 5 7 8 9 9 8 9 8 8 8 8 9 9 10 9 7 7 6 5 6 7 8 8 7 7
10 10 10 11 13 18 12 16 17 15 12 14 13 12 9 9 9 9 5 6 4 1 4 3 4 4 6 10 12 12 11 10 9 8 8 8 7 6 7 7 8 9 10 10 10 9 8 8 8
9 13 11 15 5 8 11 24 21 19 13 8 4 5 4 3 6 6 7 5 2 0 2 3 5 7 9 9 9 10 10 10 10 10 10 10 11 11 12 13 13 12 10 10 10 10 9 8 8
13 1 7 3 14 7 -0 2 4 7 27 11 5 5 1 4 3 3 5 6 4 3 3 3 6 7 6 7 6 7 6 6 7 7 9 11 13 13 13 11 11 12 12 12 12 13 12 12 10
8 19 9 10 9 1 -1 -3 -1 2 5 14 16 14 8 5 7 7 4 5 4 3 5 6 10 10 10 9 7 7 7 7 9 10 12 9 7 8 10 13 14 14 14 15 15 14 14 14 15
12 4 7 9 0 7 2 7 4 1 2 -0 -1 2 10 11 10 6 3 3 5 6 6 5 10 9 10 9 6 6 8 12 11 8 6 6 8 10 9 9 11 12 13 15 16 15 15 15 13
6 10 10 10 12 6 7 1 4 15 19 15 18 10 10 7 5 4 6 7 7 6 9 12 5 4 7 6 7 13 8 9 11 10 9 10 8 8 8 9 8 9 9 10 14 19 22 18 19
12 1 9 6 21 10 6 14 31 17 32 19 8 3 4 7 7 7 8 8 10 9 9 6 1 4 0 2 9 4 6 12 10 7 6 8 8 8 7 7 7 8 9 8 10 16 20 24 23
14 13 16 15 10 11 5 -11 -1 14 3 13 21 10 6 14 14 15 11 8 10 10 7 1 4 2 -1 4 10 5 12 9 5 4 6 7 6 6 7 8 7 8 8 7 7 9 16 23 26
15 21 14 7 7 8 11 29 12 23 4 -11 13 15 31 26 18 11 8 12 10 7 -1 2 -3 -4 6 14 9 17 9 5 3 6 8 7 6 6 8 8 8 9 9 7 7 8 8 14 22
-1 2 5 4 14 26 15 5 30 22 19 -6 -5 17 2 8 17 23 22 17 12 9 6 10 6 13 11 12 19 6 7 4 9 3 9 9 8 9 10 9 9 9 9 8 5 7 6 4 18
-4 5 14 17 12 -1 29 28 -26 -17 6 21 21 7 2 9 18 24 26 21 12 4 15 8 6 8 12 15 5 7 6 8 4 8 13 9 9 10 9 10 11 11 10 8 6 4 2 5 6
6 25 -33 8 7 2 -22 12 -14 -19 -9 10 16 15 15 11 13 5 -3 -5 9 3 16 -3 12 15 14 9 7 6 9 8 5 15 9 9 11 10 10 10 10 10 10 10 9 6 6 3 5
13 20 28 3 -6 22 9 -1 8 11 17 14 13 9 5 7 -4 5 15 9 15 12 2 9 5 13 14 10 7 7 8 6 14 9 10 9 8 9 9 10 11 11 11 10 9 10 7 4 4
10 1 2 6 8 10 15 6 -24 -10 6 12 5 5 7 -10 18 15 5 10 6 -2 3 3 5 6 6 6 10 9 11 11 11 14 10 11 10 10 10 10 10 10 9 9 9 9 10 8 3
6 -10 8 12 -6 -0 19 -2 8 15 16 32 -3 9 -2 10 6 5 4 2 4 3 10 3 3 6 8 6 9 10 11 18 11 7 9 10 10 10 10 10 10 11 10 10 11 10 11 11 10
8 6 -0 -6 22 22 15 10 0 8 -3 -6 27 -5 8 5 3 5 4 -1 0 4 4 12 4 10 10 6 9 15 16 10 7 11 7 10 10 10 10 10 11 11 10 10 10 10 11 11 11
Height
3138 3138 3137 3138 3142 3138 3137 3137 3136 3135 3135 3136 3136 3136 3137 3139 3141 3144 3142 3142 3144 3147 3150 3154 3155 3157 3158 3159 3161 3162 3162 3162 3162 3161 3161 3161 3161 3161 3160 3160 3159 3159 3158 3157 3156 3156 3154 3153 3153
3136 3136 3136 3135 3137 3136 3136 3135 3134 3132 3132 3135 3136 3136 3136 3138 3139 3140 3141 3142 3144 3148 3150 3152 3153 3156 3158 3160 3159 3161 3160 3161 3161 3160 3160 3159 3158 3159 3159 3157 3157 3156 3156 3155 3155 3154 3153 3153 3152
3134 3134 3135 3134 3133 3133 3134 3133 3132 3133 3132 3133 3135 3136 3137 3138 3139 3141 3142 3143 3146 3147 3150 3150 3152 3153 3153 3155 3156 3158 3158 3159 3159 3160 3159 3158 3157 3157 3156 3155 3154 3153 3153 3153 3153 3152 3152 3151 3150
3132 3133 3134 3132 3131 3131 3132 3131 3131 3132 3133 3133 3134 3137 3137 3138 3139 3141 3141 3142 3144 3146 3146 3147 3149 3150 3150 3153 3154 3156 3156 3157 3157 3157 3157 3156 3156 3155 3154 3152 3151 3150 3149 3149 3149 3149 3149 3149 3149
3131 3131 3131 3131 3130 3130 3130 3129 3129 3130 3131 3132 3133 3134 3135 3137 3138 3140 3140 3140 3140 3142 3145 3146 3147 3147 3149 3152 3152 3154 3155 3155 3155 3155 3154 3153 3152 3151 3150 3149 3147 3146 3145 3144 3144 3145 3145 3145 3146
3130 3130 3131 3130 3130 3129 3129 3128 3128 3129 3130 3131 3132 3134 3135 3136 3137 3138 3138 3138 3137 3138 3140 3142 3144 3146 3148 3150 3151 3152 3153 3153 3153 3152 3151 3149 3149 3148 3146 3144 3143 3142 3141 3140 3139 3140 3141 3141 3142
3128 3129 3130 3130 3129 3128 3128 3127 3127 3129 3128 3129 3131 3132 3134 3134 3135 3135 3135 3135 3137 3138 3139 3140 3142 3144 3145 3147 3149 3150 3150 3150 3150 3150 3148 3147 3145 3144 3142 3140 3138 3137 3136 3136 3135 3135 3135 3136 3137
3126 3128 3128 3128 3128 3128 3128 3127 3127 3128 3128 3129 3131 3132 3133 3133 3133 3133 3133 3134 3135 3137 3138 3139 3141 3142 3143 3145 3146 3147 3146 3146 3145 3145 3144 3143 3142 3140 3138 3136 3135 3134 3132 3131 3130 3130 3130 3130 3130
3125 3126 3126 3126 3125 3126 3127 3127 3127 3128 3129 3128 3129 3131 3131 3131 3130 3131 3132 3132 3133 3134 3135 3137 3139 3141 3142 3143 3144 3144 3143 3143 3142 3141 3139 3138 3137 3136 3134 3133 3130 3129 3128 3127 3126 3125 3125 3125 3124
3123 3124 3125 3125 3124 3125 3126 3126 3126 3127 3128 3129 3129 3129 3130 3130 3129 3129 3130 3130 3131 3133 3134 3135 3136 3138 3139 3140 3140 3139 3139 3139 3138 3136 3135 3134 3133 3131 3129 3128 3127 3124 3122 3121 3121 3120 3119 3118 3118
3120 3121 3122 3123 3122 3122 3123 3124 3124 3124 3126 3126 3127 3127 3128 3128 3128 3129 3129 3128 3129 3131 3133 3134 3136 3137 3137 3136 3135 3135 3135 3134 3133 3132 3130 3129 3127 3126 3124 3122 3121 3120 3118 3116 3115 3113 3113 3112 3112
3118 3118 3118 3119 3119 3120 3121 3120 3121 3121 3123 3123 3123 3123 3124 3126 3126 3126 3126 3127 3127 3127 3129 3130 3131 3130 3130 3130 3130 3130 3129 3128 3127 3127 3125 3123 3121 3119 3118 3117 3114 3113 3112 3110 3108 3107 3106 3105 3105
3114 3115 3115 3115 3116 3117 3117 3117 3116 3116 3117 3118 3119 3119 3120 3121 3122 3122 3122 3123 3123 3124 3126 3127 3128 3127 3127 3126 3126 3125 3124 3123 3122 3121 3120 3118 3116 3114 3112 3110 3108 3106 3104 3103 3101 3099 3098 3097 3096
3110 3111 3112 3112 3112 3112 3111 3112 3110 3112 3112 3113 3114 3116 3117 3117 3118 3118 3119 3120 3121 3122 3123 3123 3122 3122 3122 3121 3120 3119 3118 3117 3116 3114 3112 3111 3109 3108 3105 3103 3101 3099 3097 3095 3093 3091 3089 3088 3087
3107 3107 3108 3107 3107 3107 3105 3107 3107 3108 3108 3108 3109 3110 3112 3113 3113 3114 3115 3117 3117 3118 3118 3118 3117 3117 3116 3115 3114 3113 3112 3111 3109 3107 3106 3104 3102 3101 3099 3096 3094 3091 3089 3086 3084 3081 3079 3078 3076
3104 3104 3104 3103 3103 3103 3103 3103 3102 3102 3103 3104 3105 3106 3106 3108 3109 3109 3111 3112 3113 3113 3113 3113 3113 3112 3111 3110 3109 3108 3107 3105 3104 3102 3100 3097 3095 3093 3090 3088 3085 3083 3080 3077 3074 3072 3069 3067 3066
3100 3099 3099 3100 3100 3100 3100 3099 3099 3099 3098 3099 3101 3102 3104 3105 3105 3106 3107 3108 3108 3109 3109 3109 3108 3107 3106 3105 3104 3103 3101 3100 3098 3095 3093 3092 3089 3086 3084 3081 3078 3074 3071 3068 3064 3062 3058 3056 3054
3098 3097 3096 3096 3098 3096 3096 3096 3096 3097 3096 3095 3095 3096 3098 3099 3100 3102 3102 3103 3104 3104 3105 3105 3104 3103 3102 3101 3099 3097 3095 3093 3092 3089 3087 3084 3083 3080 3078 3075 3071 3067 3063 3059 3055 3051 3048 3044 3041
3094 3094 3093 3094 3096 3091 3090 3089 3093 3093 3092 3090 3090 3091 3092 3093 3094 3096 3097 3097 3097 3099 3100 3100 3100 3099 3097 3096 3095 3093 3090 3089 3087 3084 3083 3079 3077 3074 3071 3068 3065 3061 3057 3052 3047 3043 3039 3035 3029
3091 3090 3089 3089 3091 3090 3086 3083 3086 3087 3084 3082 3083 3084 3084 3086 3087 3088 3089 3090 3091 3094 3095 3095 3094 3094 3093 3091 3089 3087 3086 3084 3082 3079 3078 3074 3071 3069 3067 3063 3060 3056 3051 3046 3041 3036 3031 3025 3019
3087 3087 3087 3087 3086 3086 3083 3079 3081 3080 3079 3078 3078 3078 3077 3078 3081 3082 3084 3086 3088 3090 3092 3091 3089 3089 3087 3086 3083 3082 3080 3078 3078 3075 3072 3069 3067 3064 3061 3059 3054 3050 3046 3041 3035 3029 3021 3017 3012
3079 3082 3083 3084 3083 3082 3083 3075 3076 3077 3077 3077 3074 3073 3072 3072 3073 3075 3077 3079 3082 3086 3086 3085 3084 3084 3083 3081 3079 3078 3075 3075 3072 3070 3068 3065 3062 3059 3056 3054 3050 3045 3041 3036 3031 3024 3017 3009 3005
3079 3080 3078 3080 3081 3079 3079 3079 3069 3071 3072 3072 3071 3069 3067 3066 3067 3069 3072 3074 3077 3080 3080 3079 3079 3079 3079 3077 3075 3073 3072 3071 3068 3066 3064 3061 3058 3055 3052 3049 3046 3041 3037 3032 3027 3023 3014 3008 2999
3076 3079 3078 3076 3077 3074 3072 3074 3066 3067 3068 3068 3068 3067 3065 3064 3063 3064 3067 3071 3075 3076 3075 3075 3076 3075 3073 3071 3070 3070 3068 3067 3064 3062 3059 3056 3054 3051 3048 3044 3042 3038 3034 3031 3026 3021 3015 3008 2998
3074 3077 3076 3076 3075 3071 3067 3069 3063 3064 3064 3065 3064 3063 3063 3062 3060 3062 3065 3069 3072 3072 3072 3073 3072 3070 3069 3068 3066 3065 3063 3062 3060 3057 3055 3052 3050 3047 3045 3041 3038 3034 3030 3027 3023 3019 3014 3007 2999
3070 3072 3073 3072 3072 3068 3067 3062 3058 3059 3060 3061 3062 3062 3062 3061 3060 3062 3064 3066 3067 3067 3067 3067 3066 3066 3065 3064 3063 3061 3060 3058 3055 3052 3050 3049 3047 3043 3040 3036 3033 3030 3027 3023 3020 3016 3011 3006 2999
3067 3067 3067 3067 3068 3066 3060 3057 3056 3055 3057 3056 3058 3059 3060 3059 3060 3061 3062 3064 3065 3064 3064 3063 3063 3061 3060 3059 3058 3057 3055 3052 3050 3048 3046 3044 3041 3038 3035 3032 3030 3026 3024 3021 3018 3014 3009 3005 3000
3065 3066 3066 3066 3071 3066 3057 3052 3050 3052 3054 3054 3055 3056 3055 3056 3058 3059 3059 3060 3061 3061 3059 3057 3056 3055 3055 3055 3054 3053 3050 3047 3045 3043 3041 3039 3036 3034 3032 3030 3027 3024 3021 3019 3015 3012 3008 3004 3000
3063 3062 3062 3063 3063 3063 3061 3045 3046 3048 3049 3050 3051 3052 3052 3052 3054 3055 3055 3056 3056 3056 3055 3053 3052 3052 3052 3050 3049 3047 3045 3042 3040 3038 3037 3035 3034 3032 3029 3027 3025 3022 3020 3017 3014 3010 3007 3003 2999
3059 3057 3057 3058 3057 3055 3054 3033 3041 3045 3045 3047 3048 3047 3048 3048 3050 3051 3051 3051 3050 3050 3049 3048 3048 3047 3046 3045 3044 3042 3039 3037 3036 3035 3034 3033 3031 3029 3027 3025 3023 3021 3018 3015 3013 3009 3006 3002 3000